AirNav   Jet Aviation Boston
 
 1633 users online  

KIWS West Houston Airport
Houston, Texas, USA

GOING TO HOUSTON?


FAA INFORMATION EFFECTIVE 19 JULY 2018

Location

FAA Identifier: IWS
Lat/Long: 29-49-05.5000N / 095-40-21.4000W
29-49.091667N / 095-40.356667W
29.8181944 / -95.6726111
(estimated)
Elevation: 111 ft. / 33.8 m (surveyed)
Variation: 05E (1995)
From city: 13 miles W of HOUSTON, TX
Time zone: UTC -5 (UTC -6 during Standard Time)
Zip code: 77084

Airport Operations

Airport use: Open to the public
Activation date: 04/1964
Control tower: no
ARTCC: HOUSTON CENTER
FSS: MONTGOMERY COUNTY FLIGHT SERVICE STATION
NOTAMs facility: CXO (NOTAM-D service available)
Attendance: CONTINUOUS
Wind indicator: lighted
Segmented circle: yes
Lights: DUSK-DAWN. HIRL RY 15/33 PRESET LOW INTST; TO INCR INTST & ACTVT REIL RYS 15 & 33 - CTAF.
Beacon: white-green (lighted land airport)
Operates sunset to sunrise.
Landing fee: yes, LNDG FEE FOR HELICOPTERS. FEE WAIVED WITH FUEL PURCHASE.

Airport Communications

CTAF/UNICOM: 123.05
HOUSTON APPROACH: 123.8
HOUSTON DEPARTURE: 123.8
CLEARANCE DELIVERY: 121.15
BORRN DP: 123.8
DREMR DP: 123.8
INDIE DP: 123.8
KARRR DP: 123.8
LURIC DP: 123.8
MMALT DP: 123.8
STRYA DP: 123.8
STYCK DP: 123.8
WATFO DP: 123.8
WYLSN DP: 123.8
WX AWOS-3 at TME (12 nm W): 119.525 (281-945-5451)
WX ASOS at SGR (12 nm S): 118.125 (281-242-7605)
WX ASOS at DWH (16 nm NE): PHONE 281-251-7853
WX ASOS at IAH (20 nm NE): PHONE 281-443-6397

Nearby radio navigation aids

VOR radial/distance  VOR name  Freq  Var
IAHr239/18.9HUMBLE VORTAC116.6005E
HUBr290/22.8HOBBY VOR/DME117.1005E
TNVr137/34.6NAVASOTA VOR/DME115.9008E
ELAr066/34.9EAGLE LAKE VOR/DME116.4008E

 
NDB name  Hdg/Dist  Freq  Var  ID
NIXIN241/26.032605EBVP -... ...- .--.

Airport Services

Fuel available: 100LL JET-A
Parking: hangars and tiedowns
Airframe service: MAJOR
Powerplant service: MAJOR
Bottled oxygen: HIGH
Bulk oxygen: HIGH

Runway Information

Runway 15/33

Dimensions: 3953 x 75 ft. / 1205 x 23 m
Surface: asphalt, in good condition
Weight bearing capacity: 
Single wheel: 18.0
Double wheel: 44.0
Runway edge lights: high intensity
Runway edge markings: 15/33 NSTD PIR MKGS DUE TO RY LENGTH.
RUNWAY 15  RUNWAY 33
Latitude: 29-49.386122N29-48.796630N
Longitude: 095-40.516137W095-40.196257W
Elevation: 110.5 ft.108.9 ft.
Gradient: 0.1%0.1%
Traffic pattern: leftleft
Runway heading: 150 magnetic, 155 true330 magnetic, 335 true
Markings: NSTD, in good conditionNSTD, in good condition
Visual slope indicator: 2-light PAPI on right (3.70 degrees glide path)2-light PAPI on left (3.70 degrees glide path)
Runway end identifier lights: yesyes
Touchdown point: yes, no lightsyes, no lights
Obstructions: 36 ft. trees, 600 ft. from runway, 11:1 slope to clear15 ft. road, 200 ft. from runway, 60 ft. right of centerline
ROAD 150 FT EAST OF THLD.

Airport Ownership and Management from official FAA records

Ownership: Privately-owned
Owner: WEST HOUSTON AIRPORT CORP
BOX 941789
HOUSTON, TX 77094-8789
Phone 281-492-2130
Manager: WOODY LESIKAR
BOX 941789
HOUSTON, TX 77094-8789
Phone 281-492-2130

Airport Operational Statistics

Aircraft operations: avg 282/day *
68% local general aviation
31% transient general aviation
1% air taxi
* for 12-month period ending 31 December 2016

Additional Remarks

DEEP/WIDE DITCH APRXLY 25 FT FM AER 15; 40 FT & GTR TREES APRXLY 900 FT FM AER 15; ROAD ANGLING ACROSS APCH RY 33.
NO TOUCH & GO LANDINGS BTN 2200-0600.
NO NIGHT HELICOPTER TRAINING.
NO MULTIPLE TRAINING FLIGHTS BY HELICOPTERS.
WX INFO AVBL ON 125.575, 281-579-9820. ASRI 129.875.

Instrument Procedures

NOTE: All procedures below are presented as PDF files. If you need a reader for these files, you should download the free Adobe Reader.

NOT FOR NAVIGATION. Please procure official charts for flight.
FAA instrument procedures published for use from 19 July 2018 at 0901Z to 16 August 2018 at 0900Z.

 
STARs - Standard Terminal Arrivals
BLUBELL THREE   download (296KB)
CESAN FOUR (RNAV)   2 pages: [1] [2] (361KB)
HUDZY THREE **CHANGED**   2 pages: [1] [2] (328KB)
OHIIO FOUR   download (294KB)
TCHDN TWO   2 pages: [1] [2] (357KB)
TKNIQ TWO (RNAV)   2 pages: [1] [2] (285KB)
WAPPL FOUR (RNAV)   2 pages: [1] [2] (379KB)
WAPPL FOUR (RNAV), CONT.2   download (264KB)
 
IAPs - Instrument Approach Procedures
RNAV (GPS) RWY 15 **CHANGED**   download (188KB)
RNAV (GPS) RWY 33 **CHANGED**   download (177KB)
VOR-D   download (194KB)
 
Departure Procedures
ALEXANDRIA ONE   2 pages: [1] [2] (351KB)
BLTWY FIVE (RNAV) **NEW**   download (126KB)
BORRN THREE (RNAV)   2 pages: [1] [2] (258KB)
CRIED NINE   download (139KB)
EL DORADO NINE   download (154KB)
GIFFA NINE   download (136KB)
HOODO FIVE (RNAV)   2 pages: [1] [2] (212KB)
INDIE SIX (RNAV) **NEW**   download (154KB)
INDUSTRY NINE   2 pages: [1] [2] (338KB)
KARRR FOUR (RNAV)   2 pages: [1] [2] (205KB)
LEONA THREE   2 pages: [1] [2] (305KB)
LUFKIN TWO   2 pages: [1] [2] (196KB)
LURIC SIX (RNAV) **NEW**   download (174KB)
MMALT FOUR (RNAV) **NEW**   download (189KB)
PALACIOS NINE   2 pages: [1] [2] (267KB)
STRYA SIX (RNAV) **NEW**   download (164KB)
STYCK SIX (RNAV) **NEW**   download (151KB)
WATFO FOUR (RNAV)   download (136KB)
WYLSN SIX (RNAV) **NEW**   download (139KB)
NOTE: Special Take-Off Minimums/Departure Procedures apply   download (70KB)

Other nearby airports with instrument procedures:

KTME - Houston Executive Airport (12 nm W)
KSGR - Sugar Land Regional Airport (12 nm S)
KDWH - David Wayne Hooks Memorial Airport (16 nm NE)
KIAH - George Bush Intercontinental/Houston Airport (20 nm NE)
KAXH - Houston Southwest Airport (21 nm SE)
 
Loc | Ops | Rwys | IFR | FBO | Links
Com | Nav | Svcs | Stats | Notes

West Houston Airport
 
Area around KIWS (West Houston Airport)
 
Road maps at: MapQuest Bing Google
 
Aerial photo
WARNING: Photo may not be current or correct
Aerial photo of KIWS (West Houston Airport)
Photo taken 03-May-2013
looking northwest.

Do you have a better or more recent aerial photo of West Houston Airport that you would like to share? If so, please send us your photo.

 
Sectional chart

 
Airport diagram
CAUTION: Diagram may not be current
Diagram of KIWS (West Houston Airport)
 
Airport distance calculator
Flying to West Houston Airport? Find the distance to fly.

From to KIWS

Sunrise and sunset
Times for 19-Jul-2018
 Local
(UTC-5)
 Zulu
(UTC)
Morning civil twilight06:0911:09
Sunrise06:3511:35
Sunset20:2201:22
Evening civil twilight20:4901:49

Current date and time
Zulu (UTC)  19-Jul-2018 16:05:41
Local (UTC-5)  19-Jul-2018 11:05:41
 
METAR
KTME 
12nm W 
191555Z AUTO 24011G16KT 9SM FEW022 30/24 A2998 RMK AO2
KSGR 
12nm S 
191553Z 26010G17KT 10SM SCT024 32/24 A2997 RMK AO2 SLP148 T03220244
KDWH 
16nm NE 
191553Z 23009G16KT 10SM BKN018 31/24 A2997 RMK AO2 SLP145 T03060244
KIAH 
19nm NE 
191553Z 25007KT 10SM FEW025 SCT160 SCT250 32/24 A2996 RMK AO2 SLP145 T03170244
KAXH 
21nm SE 
191555Z AUTO 25004KT 10SM SCT022 30/25 A2998 RMK AO2 T03020253
KHOU 
23nm SE 
191553Z 25011KT 10SM SCT022 SCT170 31/26 A2996 RMK AO2 SLP149 T03060256
TAF
KSGR 
12nm S 
191335Z 1914/2012 24005KT P6SM SCT019 TEMPO 1914/1916 BKN019 FM191600 22007KT P6SM SCT040 BKN150 FM200300 19006KT P6SM SKC
KIAH 
19nm NE 
191335Z 1914/2018 23009KT P6SM SCT015 SCT160 TEMPO 1914/1916 22003KT BKN015 BKN160 FM191600 21007KT P6SM FEW040 SCT090 BKN150 FM200400 19004KT P6SM SKC FM201000 21005KT P6SM BKN012
NOTAMs
Click for the latest NOTAMs
NOTAMs are issued by the DoD/FAA and will open in a separate window not controlled by AirNav.

 

 
 

FBO, Fuel Providers, and Aircraft Ground Support

  
 Business Name 
 
 Contact 
 
 Services / Description 
 
Fuel Prices
 
Comments
  
West Houston Airport UNICOM 123.05
281-492-2130
[web site]
[email]
No Ramp Fees, Flowage Fees, Security Charges, Landing Fees (with minimum fuel purchase). Volume Discounts Available.

24-hour Full Service Facility.

The price we quote is the "ALL-IN" price you get, including additive for Jet fuel. Call us, you'll be pleasantly surprised.
More info and photos of West Houston Airport
 
NATA Safety 1st   U.S. Government AIR Card   Courtesy car   FAA Authorized Chart Agent   Wireless Internet Access (WiFi)   National Business Aviation Association  
 
independent
100LL Jet A
FS $5.48 $4.48 
 Updated 17-Jul-2018
  no comments
FS=Full service
Update Fuel Prices
 

Would you like to see your business listed on this page?

 If your business provides an interesting product or service to pilots, flight crews, aircraft, or users of the West Houston Airport, you should consider listing it here.  To start the listing process, click on the button below
 
Add a business
 

Other Pages about West Houston Airport

www.westhoustonairport.com
 
Update a link
 
Copyright © AirNav, LLC. All rights reserved. Privacy Policy  Contact